Flag for Sudan Weather past 2 weeks in Khartoum, Sudan

Now
97 °F

Sunny.


Feels Like: 93 °F
Forecast: 83 / 102 °F
Wind: 7 mph from Northwest

Location: Khartoum Airport

Current Time: Sep 23, 2014 at 11:28:43 AM

Latest Report: Sep 23, 2014 at 11:00 AM


Visibility: 10 mi

Pressure: 29.83 "Hg

Humidity: 16%

Dew point: 43 °F

Location of KhartoumLocation

Historic Weather in Khartoum — Graph

°F

Khartoum temperature yesterday

Maximum temperature yesterday: 100 °F (at 3:00 PM)
Minimum temperature yesterday: 81 °F (at 3:00 AM)
Average temperature yesterday: 91 °F

Past Weeks' High & Low Weather Summary

 TemperatureHumidityPressure
High106 °F (Sep 20, 3:00 PM)94% (Sep 9, 6:00 AM)30.12 "Hg (Sep 9, 6:00 AM)
Low72 °F (Sep 9, 6:00 AM)11% (Sep 20, 2:00 PM)29.74 "Hg (Sep 12, 5:30 PM)
Average89 °F44%29.86 "Hg
* Reported Sep 8 10:00 AM — Sep 23 10:30 AM, Khartoum, Weather by CustomWeather, © 2014

Note: Actual official high and low records may vary slightly from our data, if they occured in-between our weather recording intervals... More about our weather records

Advertising

Khartoum weather history for previous 24 hours

 ConditionsComfort  
Time TempWeatherWind HumidityBarometerVisibility
10:30 AM
Sep 23
N/ASunny.12 mphN/A29.83 "Hg10 mi
10:00 AM93 °FHaze.9 mph16%29.83 "Hg4 mi
9:30 AMN/AHaze.9 mphN/A29.83 "Hg4 mi
9:00 AM86 °FPleasantly warm.8 mph22%29.83 "Hg5 mi
8:30 AMN/A8 mphN/A29.83 "Hg5 mi
8:00 AM84 °FSunny.8 mph25%29.83 "Hg10 mi
7:30 AMN/ASunny.5 mphN/AN/A10 mi
7:00 AM82 °FSunny.7 mph25%29.80 "Hg10 mi
6:30 AMN/AClear.7 mphN/A29.80 "Hg10 mi
6:00 AM84 °FClear.6 mph20%29.80 "Hg10 mi
5:30 AMN/AClear.9 mphN/A29.80 "Hg10 mi
5:00 AM86 °FClear.6 mph22%29.80 "Hg10 mi
4:00 AM86 °FClear.6 mph33%29.77 "Hg10 mi
3:30 AMN/AClear.8 mphN/A29.77 "Hg10 mi
3:00 AM90 °FClear.12 mph26%29.77 "Hg10 mi
2:30 AMN/AClear.8 mphN/A29.77 "Hg10 mi
2:00 AM90 °FClear.6 mph41%29.77 "Hg10 mi
1:30 AMN/AClear.9 mphN/A29.80 "Hg10 mi
1:00 AM90 °FClear.10 mph38%29.80 "Hg10 mi
12:30 AMN/AClear.6 mphN/A29.83 "Hg10 mi
12:00 AM90 °FClear.8 mph43%29.83 "Hg10 mi
11:30 PM
Sep 22
N/AClear.8 mphN/A29.83 "Hg10 mi
11:00 PM91 °FClear.8 mph41%29.83 "Hg10 mi
10:30 PMN/AClear.8 mphN/A29.83 "Hg10 mi
10:00 PM93 °FClear.8 mph36%29.80 "Hg10 mi
9:30 PMN/AClear.9 mphN/A29.80 "Hg10 mi
9:00 PM95 °FClear.8 mph30%29.80 "Hg10 mi
8:30 PMN/AClear.10 mphN/A29.77 "Hg10 mi
8:00 PM97 °FClear.13 mph28%29.77 "Hg10 mi
7:30 PMN/AClear.12 mphN/A29.74 "Hg10 mi
7:00 PM99 °FClear.14 mph25%29.74 "Hg10 mi
6:30 PMN/APassing clouds.8 mphN/A29.74 "HgN/A
6:00 PM100 °FPassing clouds.6 mph20%29.74 "HgN/A
5:30 PMN/APassing clouds.6 mphN/A29.74 "HgN/A
5:00 PM100 °FPassing clouds.6 mph21%29.74 "HgN/A
4:30 PMN/APassing clouds.3 mphN/A29.74 "HgN/A
4:00 PM100 °FSunny.No wind21%29.74 "Hg10 mi
3:30 PMN/ASunny.7 mphN/A29.74 "Hg10 mi
3:00 PM100 °FSunny.6 mph22%29.77 "Hg10 mi
2:30 PMN/ASunny.8 mphN/A29.77 "Hg10 mi
2:00 PM99 °FSunny.3 mph24%29.80 "Hg10 mi
1:30 PMN/ASunny.3 mphN/A29.80 "Hg10 mi
1:00 PM99 °FSunny.6 mph25%29.83 "Hg10 mi
12:30 PMN/ASunny.5 mphN/A29.83 "Hg10 mi
12:00 PMN/ASunny.3 mphN/AN/A10 mi
11:30 AMN/ASunny.7 mphN/A29.86 "Hg10 mi
11:00 AM93 °FSunny.7 mph30%29.86 "Hg10 mi
Weather by CustomWeather, © 2014

See weather overviewHow to use our weather pages